Regional Weather Roundup
Issued by NWS

Home | Current Version | Previous Version | Graphics & Text | Print | Product List | Glossary On
Versions: 1 2 3 4 5 6 7 8 9 10 11 12 13 14 15 16 17 18 19 20 21 22 23 24 25 26 27 28 29 30 31 32 33 34 35 36 37 38 39 40 41 42 43 44 45 46 47 48 49 50
000
ASUS43 KLSX 231610
RWRMO

WEATHER SUMMARY FOR MISSOURI
NATIONAL WEATHER SERVICE SPRINGFIELD MO
1000 AM CST THU FEB 23 2017

NOTE: "FAIR" INDICATES FEW OR NO CLOUDS BELOW 12,000 FEET WITH NO
       SIGNIFICANT WEATHER AND/OR OBSTRUCTIONS TO VISIBILITY.
       CURRENT SKY AND/OR WEATHER CONDITIONS ARE NOT AVAILABLE FOR
       CHILLICOTHE AND FARMINGTON.

MOZ001>031-035>038-043-044-053-054-231700-
...NORTHERN AND WESTERN MISSOURI...

CITY           SKY/WX    TMP DP  RH WIND       PRES   REMARKS
KANSAS CTY INT CLOUDY    49  39  68 E21       29.65F
KANSAS C DTWN  CLOUDY    52  40  63 E18G25    29.64F
LEE`S SUMMIT   CLOUDY    50  41  71 E20G26    29.65F
ST JOSEPH      CLOUDY    43  40  89 E13G28    29.67F
CHILLICOTHE      N/A     44  39  82 NE14G20   29.75S
KIRKSVILLE     CLOUDY    42  40  92 NE15      29.76F

$$
MOZ066>068-077>081-088>096-101>105-231700-
...SOUTHWEST MISSOURI...

CITY           SKY/WX    TMP DP  RH WIND       PRES   REMARKS
SPRINGFIELD    PTSUNNY   58  55  90 SE16      29.63F
JOPLIN         MOSUNNY   68  53  58 S15       29.57F
BRANSON        MOSUNNY   55  55 100 E8        29.68F FOG

$$
MOZ032>034-039>042-045>050-055>058-069>072-231700-
...CENTRAL MISSOURI...

CITY           SKY/WX    TMP DP  RH WIND       PRES   REMARKS
COLUMBIA       CLOUDY    55  52  89 E9        29.69F
JEFFERSON CITY CLOUDY    51  51 100 E7        29.69F
ROLLA          CLOUDY    55  55 100 SE6       29.69F
SEDALIA        CLOUDY    55  49  80 E10       29.66F
WHITEMAN AFB   PTSUNNY   54  51  91 NE7       29.69R
WARRENSBURG    CLOUDY    54  43  66 NE15      29.64F
OSAGE BEACH    CLOUDY    59  54  83 SE9       29.67F

$$
MOZ051-052-059>065-231700-
...EAST CENTRAL MISSOURI...

CITY           SKY/WX    TMP DP  RH WIND       PRES   REMARKS
ST LOUIS INTL  MOSUNNY   64  54  69 CALM      29.73F
SPIRIT OF STL  SUNNY     62  56  80 NE5       29.71F
ST CHARLES     MOSUNNY   61  57  87 CALM      29.72F

$$
MOZ072>076-082>087-097>100-106>115-231700-
...SOUTH CENTRAL AND SOUTHEAST MISSOURI...

CITY           SKY/WX    TMP DP  RH WIND       PRES   REMARKS
CAPE GIRARDEAU CLOUDY    60  56  86 S10       29.77F
FARMINGTON     CLOUDY    56  53  90 S10       29.75F
POPLAR BLUFF   CLOUDY    58  58 100 S8        29.77S
WEST PLAINS    CLOUDY    56  55  97 S8        29.74F

$$




USA.gov is the U.S. government's official web portal to all federal, state and local government web resources and services.